Flag for Bosnia-Herzegovina Weather past 2 weeks in Mostar, Bosnia-Herzegovina

Now
54 °F

Light rain. Partly cloudy.


Feels Like: 53 °F
Forecast: 50 / 68 °F
Wind: 3 mph from Southeast

Location: Mostar


UV Index: 0 (Low)

Visibility: N/A


Pressure: 29.80 "Hg

Humidity: 88%

Dew point: 50 °F

Location of MostarLocation

Historic Weather in Mostar

°F

Mostar temperature yesterday

Maximum temperature yesterday: 64 °F (at 1:00 PM)
Minimum temperature yesterday: 50 °F (at 6:00 AM)
Average temperature yesterday: 57 °F

Past Weeks' High & Low Weather Summary

 TemperatureHumidityPressure
High75 °F (Apr 8, 2:30 PM)100% (Apr 6, 4:00 AM)30.09 "Hg (Apr 6, 4:00 AM)
Low37 °F (Apr 12, 5:00 AM)27% (Apr 8, 2:00 PM)29.62 "Hg (Apr 18, 1:30 PM)
Average57 °F57%29.91 "Hg
* Reported Apr 5 1:00 AM — Apr 20 1:00 AM, Mostar, Weather by CustomWeather, © 2014

Note: Actual official high and low records may vary slightly from our data, if they occured in-between our weather recording intervals... More about our weather records

Advertising

Historic Weather Conditions — Data for Previous 24 hours

 ConditionsComfort  
Time TempWeatherWind HumidityBarometerVisibility
1:00 AM
Apr 20
54 °FLight rain. Partly cloudy.3 mph88%29.80 "HgN/A
12:00 AM54 °FPassing clouds.2 mph82%29.77 "HgN/A
11:00 PM
Apr 19
55 °FPassing clouds.2 mph77%29.77 "HgN/A
10:00 PM57 °FPassing clouds.3 mph72%29.77 "HgN/A
9:00 PM57 °FPassing clouds.6 mph72%29.77 "HgN/A
8:00 PM59 °FPartly sunny.8 mph68%29.77 "HgN/A
7:00 PM61 °FOvercast.7 mph68%29.74 "HgN/A
6:00 PM61 °FOvercast.6 mph68%29.74 "HgN/A
5:00 PM61 °FPartly sunny.6 mph68%29.74 "HgN/A
4:00 PM61 °FPassing clouds.8 mph68%29.74 "HgN/A
3:00 PM64 °FPassing clouds.8 mph56%29.71 "HgN/A
2:00 PM63 °FPassing clouds.6 mph59%29.74 "HgN/A
1:00 PM64 °FPassing clouds.3 mph56%29.74 "HgN/A
12:00 PM61 °FPassing clouds.5 mph63%29.74 "HgN/A
11:00 AM59 °FPassing clouds.2 mph63%29.74 "HgN/A
10:00 AM57 °FPassing clouds.2 mph72%29.71 "HgN/A
9:00 AM55 °FPassing clouds.3 mph72%29.71 "HgN/A
8:00 AM54 °FPassing clouds.2 mph77%29.68 "HgN/A
7:00 AM52 °FScattered clouds.3 mph82%29.68 "HgN/A
6:00 AM50 °FPassing clouds.5 mph82%29.68 "HgN/A
5:00 AM52 °FPassing clouds.6 mph82%29.65 "HgN/A
3:30 AM54 °FPassing clouds.3 mph77%29.65 "HgN/A
3:00 AM54 °FPassing clouds.2 mph77%29.65 "HgN/A
2:00 AM55 °FPassing clouds.2 mph67%29.65 "HgN/A
Weather by CustomWeather, © 2014

See weather overview